Tracking 17938 objects as of 21-February-2017
HD Live streaming from Space Station
objects crossing your sky now

SL-14 R/B

Track SL-14 R/B now!
10-day predictions


NORAD ID: 16736
Int'l Code: 1986-039B
Perigee: 943.9 km
Apogee: 964.7 km
Inclination: 82.5 °
Period: 104.0 minutes
Semi major axis: 7325 km
RCS: 5.1168 m2 (large)
Launch date: May 27, 1986
Source: Commonwealth of Independent States (former USSR) (CIS)
Launch site: PLESETSK MISSILE AND SPACE COMPLEX (PKMTR)

Note: This is a ROCKET BODY
Your satellite tracking list
Your tracking list is empty





NASA's NSSDC Master Catalog

Two Line Element Set (TLE):
1 16736U 86039B   17051.77714871  .00000014  00000-0 -60022-6 0  9997
2 16736  82.5381 120.0540 0014200  68.5550 291.7123 13.84740331553596
Source of the keplerian elements: AFSPC